TimeCST,TemperatureF,Dew PointF,Humidity,Sea Level PressureIn,VisibilityMPH,Wind Direction,Wind SpeedMPH,Gust SpeedMPH,PrecipitationIn,Events,Conditions,WindDirDegrees,DateUTC
12:15 AM,53.6,44.6,72,30.13,10.0,ENE,8.1,-,N/A,,Overcast,60,2013-01-08 06:15:00
12:35 AM,53.6,44.6,72,30.11,10.0,ENE,10.4,17.3,N/A,,Overcast,70,2013-01-08 06:35:00
12:55 AM,53.6,44.6,72,30.11,10.0,ENE,9.2,-,N/A,,Mostly Cloudy,60,2013-01-08 06:55:00
1:15 AM,51.8,44.6,76,30.11,10.0,ENE,10.4,-,N/A,,Mostly Cloudy,70,2013-01-08 07:15:00
1:35 AM,51.8,46.4,82,30.11,10.0,ENE,8.1,-,N/A,,Scattered Clouds,70,2013-01-08 07:35:00
1:55 AM,51.8,46.4,82,30.10,10.0,ENE,9.2,-,N/A,,Scattered Clouds,60,2013-01-08 07:55:00
2:15 AM,51.8,46.4,82,30.09,10.0,ENE,9.2,-,N/A,,Scattered Clouds,60,2013-01-08 08:15:00
2:35 AM,53.6,46.4,77,30.10,10.0,ENE,8.1,-,N/A,,Mostly Cloudy,70,2013-01-08 08:35:00
2:55 AM,51.8,46.4,82,30.10,10.0,ENE,6.9,-,N/A,,Overcast,60,2013-01-08 08:55:00
3:15 AM,51.8,46.4,82,30.10,10.0,ENE,6.9,-,N/A,,Overcast,70,2013-01-08 09:15:00
3:35 AM,53.6,46.4,77,30.10,10.0,ENE,6.9,-,N/A,,Mostly Cloudy,60,2013-01-08 09:35:00
3:55 AM,51.8,46.4,82,30.08,10.0,ENE,8.1,-,N/A,,Overcast,60,2013-01-08 09:55:00
4:15 AM,51.8,46.4,82,30.07,10.0,ENE,8.1,-,N/A,,Mostly Cloudy,60,2013-01-08 10:15:00
4:35 AM,53.6,48.2,82,30.07,10.0,ENE,9.2,-,N/A,,Mostly Cloudy,60,2013-01-08 10:35:00
4:55 AM,53.6,48.2,82,30.07,10.0,ENE,8.1,-,N/A,,Light Drizzle,60,2013-01-08 10:55:00
5:15 AM,51.8,48.2,88,30.06,10.0,ENE,9.2,-,N/A,,Overcast,70,2013-01-08 11:15:00
5:35 AM,53.6,48.2,82,30.07,10.0,ENE,6.9,-,N/A,,Overcast,60,2013-01-08 11:35:00
5:55 AM,53.6,50.0,88,30.08,10.0,East,5.8,-,N/A,Rain,Light Rain,80,2013-01-08 11:55:00
6:15 AM,51.8,50.0,94,30.07,10.0,ENE,11.5,-,0.01,Rain,Light Rain,60,2013-01-08 12:15:00
6:35 AM,51.8,50.0,94,30.07,10.0,ENE,9.2,-,0.01,,Light Drizzle,60,2013-01-08 12:35:00
6:55 AM,51.8,50.0,94,30.07,10.0,ENE,9.2,-,0.01,,Light Drizzle,60,2013-01-08 12:55:00
7:15 AM,51.8,50.0,94,30.08,10.0,ENE,9.2,-,N/A,,Overcast,70,2013-01-08 13:15:00
7:35 AM,51.8,51.8,100,30.09,10.0,ENE,8.1,-,N/A,,Overcast,60,2013-01-08 13:35:00
7:55 AM,53.6,51.8,94,30.10,10.0,ENE,9.2,-,N/A,,Overcast,70,2013-01-08 13:55:00
8:15 AM,53.6,51.8,94,30.10,10.0,ENE,6.9,-,N/A,,Overcast,70,2013-01-08 14:15:00
8:35 AM,53.6,51.8,94,30.11,10.0,ENE,9.2,-,N/A,Thunderstorm,Overcast,70,2013-01-08 14:35:00
8:55 AM,53.6,51.8,94,30.12,10.0,East,8.1,-,N/A,Thunderstorm,Overcast,80,2013-01-08 14:55:00
9:15 AM,55.4,51.8,88,30.12,10.0,East,9.2,-,N/A,,Mostly Cloudy,80,2013-01-08 15:15:00
9:35 AM,55.4,53.6,94,30.11,10.0,East,11.5,17.3,N/A,,Mostly Cloudy,80,2013-01-08 15:35:00
9:55 AM,57.2,53.6,88,30.11,10.0,East,11.5,-,N/A,Thunderstorm,Mostly Cloudy,80,2013-01-08 15:55:00
10:15 AM,59.0,55.4,88,30.11,10.0,ENE,8.1,-,N/A,Thunderstorm,Overcast,70,2013-01-08 16:15:00
10:35 AM,59.0,55.4,88,30.12,10.0,East,10.4,-,0.01,Rain,Rain,90,2013-01-08 16:35:00
10:55 AM,57.2,55.4,94,30.07,7.0,East,17.3,23.0,0.04,Rain,Light Rain,90,2013-01-08 16:55:00
11:15 AM,59.0,59.0,100,30.07,5.0,ENE,12.7,19.6,N/A,,Light Drizzle,70,2013-01-08 17:15:00
11:55 AM,60.8,59.0,94,30.06,10.0,ENE,10.4,-,N/A,,Overcast,60,2013-01-08 17:55:00
12:15 PM,60.8,59.0,94,30.04,10.0,ENE,12.7,16.1,N/A,,Overcast,70,2013-01-08 18:15:00
12:55 PM,60.8,59.0,94,30.03,10.0,East,10.4,-,N/A,,Overcast,80,2013-01-08 18:55:00
1:15 PM,60.8,60.8,100,30.02,7.0,ENE,8.1,17.3,N/A,Rain,Light Rain,70,2013-01-08 19:15:00
1:55 PM,60.8,60.8,100,30.02,10.0,East,9.2,-,0.01,Rain,Light Rain,90,2013-01-08 19:55:00
2:15 PM,62.6,60.8,94,29.99,7.0,East,12.7,17.3,N/A,,Overcast,80,2013-01-08 20:15:00
2:35 PM,62.6,60.8,94,29.99,10.0,East,12.7,-,N/A,,Overcast,90,2013-01-08 20:35:00
2:55 PM,62.6,60.8,94,29.98,7.0,East,13.8,17.3,N/A,,Overcast,80,2013-01-08 20:55:00
3:15 PM,62.6,62.6,100,29.98,10.0,East,9.2,-,N/A,,Overcast,80,2013-01-08 21:15:00
3:35 PM,62.6,62.6,100,29.99,10.0,East,13.8,18.4,N/A,,Overcast,80,2013-01-08 21:35:00
3:55 PM,62.6,62.6,100,30.00,10.0,East,8.1,-,N/A,,Overcast,90,2013-01-08 21:55:00
4:15 PM,62.6,62.6,100,30.02,10.0,East,8.1,-,N/A,,Overcast,100,2013-01-08 22:15:00
4:35 PM,62.6,62.6,100,30.02,10.0,East,8.1,-,N/A,,Overcast,80,2013-01-08 22:35:00
4:55 PM,62.6,60.8,94,30.03,10.0,East,8.1,-,N/A,Rain,Rain,90,2013-01-08 22:55:00
5:15 PM,62.6,60.8,94,30.00,10.0,East,9.2,-,0.01,,Drizzle,80,2013-01-08 23:15:00
5:35 PM,62.6,60.8,94,30.02,10.0,East,4.6,-,0.01,,Light Drizzle,90,2013-01-08 23:35:00
5:55 PM,62.6,60.8,94,30.02,10.0,East,5.8,-,0.01,,Mostly Cloudy,80,2013-01-08 23:55:00
6:15 PM,62.6,60.8,94,30.02,10.0,East,6.9,-,N/A,,Overcast,100,2013-01-09 00:15:00
6:35 PM,62.6,60.8,94,30.01,10.0,East,11.5,-,N/A,,Mostly Cloudy,90,2013-01-09 00:35:00
6:55 PM,62.6,60.8,94,30.02,10.0,ESE,8.1,-,N/A,,Drizzle,120,2013-01-09 00:55:00
7:15 PM,62.6,60.8,94,30.02,10.0,East,9.2,-,N/A,,Light Drizzle,100,2013-01-09 01:15:00
7:35 PM,62.6,60.8,94,30.00,10.0,ESE,15.0,20.7,0.01,,Drizzle,110,2013-01-09 01:35:00
7:55 PM,62.6,62.6,100,30.03,10.0,ESE,16.1,24.2,0.01,Rain,Light Rain,120,2013-01-09 01:55:00
8:15 PM,62.6,62.6,100,30.04,10.0,ESE,15.0,23.0,0.02,Rain,Light Rain,120,2013-01-09 02:15:00
8:35 PM,62.6,62.6,100,30.04,7.0,ESE,15.0,25.3,0.05,Rain,Light Rain,110,2013-01-09 02:35:00
8:55 PM,62.6,62.6,100,30.01,10.0,East,16.1,25.3,0.09,Rain,Light Rain,100,2013-01-09 02:55:00
9:15 PM,62.6,62.6,100,30.00,10.0,East,13.8,24.2,0.02,Rain,Light Rain,100,2013-01-09 03:15:00
9:35 PM,62.6,62.6,100,30.03,10.0,East,5.8,-,0.03,Rain,Light Rain,100,2013-01-09 03:35:00
9:55 PM,62.6,62.6,100,30.03,10.0,East,13.8,19.6,0.03,,Mostly Cloudy,90,2013-01-09 03:55:00
10:15 PM,62.6,62.6,100,30.02,10.0,East,11.5,19.6,N/A,,Scattered Clouds,100,2013-01-09 04:15:00
10:35 PM,62.6,62.6,100,30.01,10.0,East,16.1,23.0,N/A,,Clear,90,2013-01-09 04:35:00
10:55 PM,62.6,62.6,100,30.02,10.0,East,13.8,19.6,N/A,,Clear,90,2013-01-09 04:55:00